CAPE
1064 887 634 482 645 973 1114 1137 286 729 648 89 98 374 487 456 222 16 7 0 0 0 0 0 0 0 0 0 0 0 0 42 45 4 6 7 2 4
995 781 861 585 478 749 941 1063 416 525 858 263 295 282 343 152 112 136 15 0 0 0 0 0 0 0 0 0 0 0 0 4 3 0 0 3 0 5
582 651 680 599 500 452 537 584 602 419 669 955 369 335 321 85 4 1 5 1 0 0 0 0 0 0 0 0 0 0 0 0 0 0 0 2 1 4
487 414 424 370 367 449 385 414 495 592 309 476 591 363 118 61 3 0 0 2 1 0 0 0 0 0 0 0 0 0 0 0 0 0 0 0 2 3
371 411 409 379 310 353 262 220 209 147 136 122 31 0 0 5 4 1 1 1 1 0 0 0 0 0 0 0 0 0 0 0 0 0 0 0 0 2
0 146 361 374 317 283 243 156 102 51 34 39 0 0 0 2 4 0 0 0 0 0 0 0 0 0 0 1 1 0 0 0 0 0 0 0 0 0
3 1 88 290 287 319 263 196 137 63 30 27 0 1 0 6 1 2 0 1 1 0 0 0 0 0 0 0 0 0 0 0 0 0 0 0 0 0
4 5 8 23 43 2 1 0 149 97 54 9 0 0 0 3 5 3 0 0 0 2 0 0 0 1 0 0 0 0 0 0 0 0 0 0 0 0
7 6 2 6 3 124 20 1 2 1 1 12 0 0 0 0 2 0 0 0 1 2 0 0 0 0 0 0 0 0 0 0 0 0 0 0 0 0
3 6 8 3 1 1 2 1 1 0 0 0 1 0 0 0 0 0 0 0 0 0 0 0 1 2 1 0 2 4 3 3 4 4 3 2 2 1
2 0 5 1 0 0 0 1 1 1 0 1 0 0 0 0 0 0 0 0 1 1 0 0 2 2 1 1 0 3 3 4 5 4 2 2 4 3
3 5 1 0 0 1 0 1 1 0 1 1 1 0 0 0 0 0 0 0 1 0 0 0 0 0 0 1 1 0 0 2 4 7 7 8 9 0
2 2 3 0 0 0 0 0 0 0 0 1 0 1 1 0 0 0 0 0 0 0 0 0 0 0 0 1 0 1 0 1 0 2 11 15 14 4
5 6 4 1 0 0 0 0 0 1 1 1 0 1 0 1 0 0 0 1 0 0 0 0 0 0 0 0 0 0 0 0 0 0 1 4 11 13
8 5 0 1 0 0 0 0 0 0 1 1 0 0 0 0 0 0 0 0 0 0 0 0 0 0 0 0 0 0 0 0 1 0 2 3 5 3
9 12 3 0 0 0 1 0 0 0 0 0 0 0 0 0 0 0 0 0 0 0 0 0 0 0 0 0 0 0 1 1 2 4 7 11 13 13
12 17 11 11 7 5 0 0 0 0 0 0 0 0 0 0 0 0 0 0 0 0 0 0 0 0 0 0 5 5 9 6 9 9 3 4 5 6
15 17 20 16 9 5 3 1 0 0 0 0 0 0 0 0 0 0 0 0 0 0 0 0 0 0 0 4 2 8 11 5 7 6 6 5 6 2
22 21 25 18 9 5 3 1 1 0 0 0 0 0 0 0 0 0 0 0 0 0 0 0 0 0 2 5 19 2 5 3 2 3 6 11 8 6
25 22 16 16 8 4 2 1 1 1 0 0 0 0 0 0 0 0 0 0 0 0 1 2 2 3 4 5 13 13 2 11 10 9 11 10 0 0
30 22 22 13 12 7 5 3 2 1 1 0 0 0 0 0 0 0 0 0 0 0 2 8 8 0 5 6 8 7 4 0 8 15 15 18 1 0
44 35 25 25 18 11 11 6 5 2 2 2 0 0 0 0 0 0 0 0 0 0 0 1 1 3 8 6 10 5 5 3 0 0 0 1 4 12
30 43 40 36 22 17 12 7 6 4 5 3 3 3 1 0 0 0 0 0 0 0 0 0 0 5 8 7 6 4 4 1 0 0 0 0 0 0
CIN
-3 -1 -4 -20 -1 -0 -0 -0 -22 -0 -0 -80 -79 -13 -1 -0 -2 -15 -32 -0 -0 -0 -0 -0 -0 -0 -0 -0 -0 -0 -0 -59 -59 -4 -0 -0 -0 -0
-1 -0 -0 -8 -17 -0 -0 -0 -11 -3 -0 -8 -40 -37 -26 -31 -14 -12 -32 -0 -0 -0 -0 -0 -0 -0 -0 -0 -0 -0 -0 -12 -18 -0 -0 -0 -0 -0
-0 -1 -0 -0 -0 -1 -1 -1 -1 -12 -0 -1 -20 -14 -19 -71 -5 -12 -20 -1 -0 -0 -0 -0 -0 -0 -0 -0 -0 -0 -0 -0 -0 -0 -0 -0 -0 -0
-1 -2 -1 -1 -1 -1 -1 -1 -1 -1 -1 -1 -10 -12 -47 -106 -123 -0 -0 -2 -1 -0 -0 -0 -0 -0 -0 -0 -0 -0 -0 -0 -0 -0 -0 -0 -0 -0
-0 -0 -2 -0 -0 -0 -0 -5 -5 -16 -16 -14 -74 -0 -0 -0 -0 -0 -0 -0 -0 -0 -0 -0 -0 -0 -0 -0 -0 -0 -0 -0 -0 -0 -0 -0 -0 -0
-0 -80 -0 -0 -0 -0 -0 -14 -32 -62 -48 -32 -0 -0 -0 -0 -0 -0 -0 -0 -0 -0 -0 -0 -0 -0 -0 -0 -0 -0 -0 -0 -0 -0 -0 -0 -0 -0
-0 -0 -86 -0 -2 -1 -0 -1 -15 -39 -51 -34 -0 -0 -0 -0 -0 -0 -0 -0 -0 -0 -0 -0 -0 -0 -0 -0 -0 -0 -0 -0 -0 -0 -0 -0 -0 -0
-0 -0 -0 -114 -100 -0 -0 -0 -3 -8 -25 -55 -0 -0 -0 -0 -0 -0 -0 -0 -0 -0 -0 -0 -0 -0 -0 -0 -0 -0 -0 -0 -0 -0 -0 -0 -0 -0
-0 -0 -0 -0 -0 -17 -69 -0 -0 -0 -30 -44 -0 -0 -0 -0 -0 -0 -0 -0 -0 -0 -0 -0 -0 -0 -0 -0 -0 -0 -0 -0 -0 -0 -0 -0 -0 -0
-0 -0 -0 -0 -0 -0 -98 -0 -0 -0 -0 -0 -83 -0 -0 -0 -0 -0 -0 -0 -0 -0 -0 -0 -0 -0 -0 -0 -0 -0 -0 -0 -0 -0 -0 -0 -0 -0
-0 -0 -0 -0 -0 -0 -0 -0 -0 -0 -0 -0 -0 -0 -0 -0 -0 -0 -0 -0 -0 -0 -0 -0 -0 -0 -0 -0 -0 -0 -0 -0 -0 -0 -0 -0 -0 -0
-0 -1 -1 -0 -0 -0 -0 -0 -0 -0 -0 -0 -0 -0 -0 -0 -0 -0 -0 -0 -0 -0 -0 -0 -0 -0 -0 -0 -0 -0 -0 -0 -0 -0 -0 -0 -0 -0
-0 -0 -0 -0 -0 -0 -0 -0 -0 -0 -0 -0 -0 -0 -0 -0 -0 -0 -0 -0 -0 -0 -0 -0 -0 -0 -0 -0 -0 -0 -0 -0 -0 -0 -0 -0 -0 -0
-0 -0 -0 -0 -0 -0 -0 -0 -0 -0 -0 -0 -0 -0 -0 -0 -0 -0 -0 -0 -0 -0 -0 -0 -0 -0 -0 -0 -0 -0 -0 -0 -0 -0 -0 -0 -0 -0
-0 -0 -0 -0 -0 -0 -0 -0 -0 -0 -0 -0 -0 -0 -0 -0 -0 -0 -0 -0 -0 -0 -0 -0 -0 -0 -0 -0 -0 -0 -0 -0 -0 -0 -0 -0 -0 -0
-0 -0 -0 -0 -0 -0 -0 -0 -0 -0 -0 -0 -0 -0 -0 -0 -0 -0 -0 -0 -0 -0 -0 -0 -0 -0 -0 -0 -0 -0 -0 -0 -0 -0 -0 -0 -0 -0
-0 -0 -0 -0 -0 -0 -0 -0 -0 -0 -0 -0 -0 -0 -0 -0 -0 -0 -0 -0 -0 -0 -0 -0 -0 -0 -0 -0 -0 -0 -0 -0 -0 -0 -0 -0 -0 -0
-0 -0 -0 -0 -0 -0 -0 -0 -0 -0 -0 -0 -0 -0 -0 -0 -0 -0 -0 -0 -0 -0 -0 -0 -0 -0 -0 -0 -0 -0 -0 -0 -0 -0 -0 -0 -0 -0
-0 -0 -0 -0 -0 -0 -0 -0 -0 -0 -0 -0 -0 -0 -0 -0 -0 -0 -0 -0 -0 -0 -0 -0 -0 -0 -0 -0 -0 -0 -0 -0 -0 -0 -0 -0 -0 -0
-0 -0 -0 -0 -0 -0 -0 -0 -0 -0 -0 -0 -0 -0 -0 -0 -0 -0 -0 -0 -0 -0 -0 -0 -0 -0 -0 -0 -0 -0 -0 -0 -0 -0 -0 -0 -0 -0
-0 -0 -0 -0 -0 -0 -0 -0 -0 -0 -0 -0 -0 -0 -0 -0 -0 -0 -0 -0 -0 -0 -0 -0 -0 -0 -0 -0 -0 -0 -0 -0 -0 -0 -0 -0 -0 -0
-0 -0 -0 -0 -0 -0 -0 -0 -0 -0 -0 -0 -0 -0 -0 -0 -0 -0 -0 -0 -0 -0 -0 -0 -0 -0 -0 -0 -0 -0 -0 -0 -0 -0 -0 -0 -0 -0
-0 -0 -0 -0 -0 -0 -0 -0 -0 -0 -0 -0 -0 -0 -0 -0 -0 -0 -0 -0 -0 -0 -0 -0 -0 -0 -0 -0 -0 -0 -0 -0 -0 -0 -0 -0 -0 -0
Wind_Speed
12 14 13 12 12 12 11 11 10 10 11 8 7 13 11 11 13 13 15 18 18 19 19 20 22 20 20 19 18 18 17 16 20 21 20 19 20 19
11 16 14 12 12 11 11 11 11 11 10 10 12 11 13 10 11 13 14 14 19 21 19 19 21 23 21 19 18 17 16 16 21 22 21 21 22 20
12 14 15 15 11 10 10 9 11 9 12 9 4 10 14 14 9 11 11 12 11 17 20 21 20 20 20 20 18 17 16 19 22 24 24 24 23 23
12 13 14 11 15 14 10 14 12 12 10 12 5 4 8 11 10 10 10 10 12 16 20 20 20 21 20 19 18 19 20 21 22 24 23 22 23 23
11 13 14 14 12 11 12 11 10 9 10 9 5 3 3 2 2 2 2 1 1 4 15 16 16 17 18 18 19 22 23 21 19 19 20 21 21 21
7 10 11 13 14 12 12 13 11 10 11 10 6 4 3 2 3 3 2 1 2 1 2 6 15 21 20 20 22 25 26 26 24 23 20 18 18 20
12 10 11 13 14 14 11 13 13 11 10 11 5 3 4 4 8 5 5 3 1 1 0 3 1 8 12 22 21 28 28 27 25 23 22 20 18 19
11 13 12 12 12 16 17 16 14 12 13 11 10 8 8 7 6 6 5 4 2 4 3 1 2 2 3 8 21 28 30 29 28 26 24 21 20 16
10 10 12 9 11 12 12 16 15 19 18 14 13 11 10 12 10 8 7 6 4 4 4 2 3 3 4 4 7 22 33 32 29 27 25 24 20 17
10 9 12 13 13 14 10 6 10 12 14 10 15 15 12 13 15 10 8 7 5 3 3 4 2 3 3 4 11 9 11 27 26 24 26 23 20 16
10 11 10 12 14 16 12 9 8 11 8 13 14 15 18 16 15 11 8 9 3 3 3 4 4 4 2 4 6 12 12 13 18 22 22 20 21 17
12 10 12 11 13 13 10 11 9 10 7 4 3 4 6 14 25 14 13 11 5 3 7 6 5 5 3 1 5 6 7 14 16 18 21 22 20 7
11 11 10 16 19 18 15 9 11 2 7 8 6 1 3 9 9 5 12 12 7 3 9 7 6 5 3 5 5 6 8 9 7 11 18 18 19 11
10 9 10 21 24 21 13 12 15 9 3 5 6 5 6 7 9 5 7 4 4 5 16 9 7 8 6 4 6 7 8 8 7 8 8 12 16 15
9 12 19 18 18 13 11 13 9 6 6 6 7 6 4 5 10 8 9 11 9 7 12 7 8 10 8 7 7 10 12 8 7 8 8 8 8 8
12 11 13 12 11 7 7 5 4 4 4 5 3 4 5 6 8 5 7 8 6 6 6 6 8 12 6 7 10 11 9 8 10 8 8 7 6 5
15 10 8 7 8 7 5 4 4 4 3 2 3 5 7 8 6 6 8 7 6 8 7 7 8 8 6 10 9 11 10 8 11 10 9 7 5 6
11 10 8 7 7 7 7 5 3 3 3 1 1 3 5 5 8 6 8 6 10 9 10 10 11 11 9 8 6 11 8 9 9 10 8 6 6 6
7 8 8 7 8 6 6 5 4 2 1 1 3 4 5 6 8 9 7 9 8 10 10 10 10 11 10 9 5 5 9 9 9 9 7 5 5 7
8 8 8 8 7 6 5 4 2 2 2 1 3 5 4 7 7 8 9 10 10 11 10 8 7 8 10 11 10 8 11 10 9 8 6 5 3 9
9 9 8 8 7 5 4 3 2 2 2 3 3 5 5 5 6 7 9 11 12 10 12 8 6 14 11 13 11 11 9 14 7 9 8 6 5 5
10 9 8 7 6 5 4 2 2 4 2 5 4 6 6 6 6 9 9 9 9 8 10 10 12 11 10 12 13 13 9 9 15 19 16 8 1 5
11 11 10 7 6 5 4 3 3 3 2 5 7 7 8 8 8 9 9 9 11 10 9 11 10 9 11 11 12 10 14 10 7 7 7 11 12 11
Wind_Direction
219 221 222 222 231 233 236 235 233 224 211 197 201 217 209 203 197 196 196 189 187 189 192 194 189 196 198 200 203 205 212 213 198 177 175 170 165 175
222 227 224 225 229 236 229 231 235 242 237 197 209 198 212 206 190 194 202 171 195 196 198 202 197 195 197 199 198 202 202 193 185 169 170 171 169 176
233 228 229 226 225 223 227 225 227 230 248 231 215 205 189 202 202 202 205 208 206 210 204 202 199 198 197 196 196 195 185 174 177 170 173 173 172 175
228 229 232 227 230 225 221 223 222 222 229 246 186 190 187 193 201 193 207 213 214 197 214 207 202 201 199 195 189 179 171 171 175 171 170 174 170 174
246 236 233 229 227 223 220 214 219 220 220 224 216 122 68 141 79 18 93 91 347 349 204 206 201 202 202 195 184 174 169 166 166 169 167 168 167 171
306 289 250 236 226 223 223 215 213 211 212 215 187 145 168 139 167 168 213 145 227 19 322 240 213 205 196 187 180 176 169 168 166 164 163 161 160 165
298 287 286 255 236 227 223 220 216 215 213 212 173 153 161 174 197 173 201 135 197 206 75 24 284 224 203 186 183 174 168 162 161 162 157 156 159 164
294 292 284 278 247 242 236 238 210 217 218 211 205 200 188 198 183 175 147 141 222 183 136 79 6 49 346 221 186 172 163 162 162 162 158 155 151 148
302 303 295 294 284 259 237 226 236 220 220 214 202 197 189 188 173 180 175 177 179 145 117 88 22 61 3 13 185 180 162 159 159 156 150 148 145 147
312 309 299 301 299 306 271 211 228 230 237 228 208 203 203 183 194 192 161 108 69 119 102 132 113 66 64 57 106 134 152 143 145 149 145 147 145 151
311 311 304 297 298 303 302 266 214 226 244 258 252 197 181 176 155 126 142 147 137 178 181 112 138 107 68 114 125 136 134 137 137 145 151 154 152 155
317 306 296 292 302 309 308 286 247 236 208 217 176 330 165 159 158 173 158 168 131 149 180 116 142 135 126 98 147 147 145 153 158 159 160 159 161 155
315 317 316 316 313 312 302 284 271 295 233 216 228 139 119 157 176 163 171 166 155 156 165 129 149 146 102 140 149 159 158 155 155 164 168 168 165 166
307 309 315 323 315 308 301 280 265 261 227 201 192 175 178 193 175 154 145 94 119 122 160 149 146 162 140 138 155 159 159 156 155 160 163 167 176 187
309 307 304 308 312 312 319 307 275 235 196 182 193 192 187 171 127 104 96 93 77 112 161 153 141 155 162 150 147 163 153 164 162 160 162 174 176 189
333 315 303 292 289 298 318 342 336 320 264 234 157 114 116 137 141 138 132 130 104 90 86 109 136 147 131 131 143 155 159 166 164 163 164 165 155 165
319 309 303 311 317 319 326 339 347 342 332 339 173 149 149 136 132 138 131 136 123 142 123 114 115 108 117 141 149 161 158 149 163 155 148 143 154 177
306 304 308 315 313 320 319 323 336 338 325 45 31 128 149 135 140 130 131 139 135 137 131 137 129 114 111 65 139 152 154 147 144 142 144 147 157 187
305 320 315 316 317 316 314 320 309 354 321 58 125 116 133 126 138 130 134 129 137 133 138 144 149 148 138 131 107 136 140 138 136 134 143 158 160 188
340 335 327 321 322 318 317 307 332 337 59 61 97 115 137 139 141 133 130 134 139 135 135 145 159 159 149 139 131 113 123 128 138 141 151 170 105 102
345 341 338 330 328 328 324 346 331 57 101 94 99 95 106 121 123 120 119 136 138 140 137 145 133 115 109 114 114 110 82 79 119 145 148 159 156 155
346 340 339 337 342 343 340 337 74 81 99 97 84 96 100 98 109 114 121 134 134 120 111 107 109 118 127 127 121 116 110 92 76 77 70 54 165 168
343 342 348 348 356 357 350 21 58 86 111 106 108 109 110 110 107 95 96 100 107 110 118 117 122 122 113 113 117 115 115 111 118 113 82 76 84 91